20 Feb 2013

Data owners: Hisahiro Takashima (hisahiro@jamstec.go.jp), 
             Yugo Kanaya, and Fumikazu Taketani (JAMSTEC/RIGC)
Platform: R/V Mirai [MR11-07]

Ambient air was continually sampled on the compass deck 
and drawn through ~20-m-long Teflon tubes connected 
to UV photometric based ozone analyzer (Model 49C, 
Thermo Fisher 5.10-1 Scientific) in the Research 
Information Center on R/V Mirai.


date and time [UTC]
time [UTC, hours since 2009-01-01 00:00:0.0]
one-hour average ozone concentration [ppbv]
one-hour minimum ozone concentration [ppbv]
one-hour maximum ozone concentration [ppbv]


date, time, ozone, maximum, maximum
20110925 19:00,   23947,  10.5,   6.2,  14.6
20110925 20:00,   23948,  11.9,  10.2,  13.4
20110925 21:00,   23949,  11.7,  10.9,  17.1
20110925 22:00,   23950,  11.4,  10.9,  12.0
20110925 23:00,   23951,  11.6,  10.7,  12.4
20110926 00:00,   23952,  11.6,  11.2,  12.1
20110926 01:00,   23953,  11.6,  11.0,  12.2
20110926 02:00,   23954,  12.5,  11.1,  14.3
20110926 03:00,   23955,  12.9,  11.7,  14.9
20110926 04:00,   23956,  13.3,  11.9,  15.3
20110926 05:00,   23957,  13.8,  11.9,  20.7
20110926 06:00,   23958,  14.9,  13.6,  17.2
20110926 07:00,   23959,  14.4,  13.5,  16.5
20110926 08:00,   23960,  13.3,  12.0,  14.2
20110926 09:00,   23961,  15.0,  12.3,  18.8
20110926 10:00,   23962,  17.0,  15.1,  18.5
20110926 11:00,   23963,  18.2,  15.8,  21.3
20110926 12:00,   23964,  15.8,  13.9,  18.6
20110926 13:00,   23965,  14.5,  13.8,  15.5
20110926 14:00,   23966,  14.4,  13.4,  15.2
20110926 15:00,   23967,  14.5,  13.3,  15.2
20110926 16:00,   23968,  14.2,  13.2,  15.8
20110926 17:00,   23969,  13.5,  12.9,  14.3
20110926 18:00,   23970,  13.8,  12.9,  15.2
20110926 19:00,   23971,  15.3,  14.6,  15.9
20110926 20:00,   23972,  16.7,  15.5,  18.1
20110926 21:00,   23973,  15.4,  14.6,  16.5
20110926 22:00,   23974,  15.1,  14.4,  16.0
20110926 23:00,   23975,  15.1,  13.6,  16.1
20110927 00:00,   23976,  15.1,  14.3,  20.2
20110927 01:00,   23977,  15.6,  14.9,  16.4
20110927 02:00,   23978,  15.8,  14.3,  16.8
20110927 03:00,   23979,  15.3,  14.4,  16.2
20110927 04:00,   23980,  15.8,  15.0,  16.5
20110927 05:00,   23981,  15.3,  14.6,  16.4
20110927 06:00,   23982,  15.0,  14.0,  15.7
20110927 07:00,   23983,  13.8,  12.6,  14.8
20110927 08:00,   23984,  13.8,  12.4,  14.9
20110927 09:00,   23985,  13.2,  12.6,  13.8
20110927 10:00,   23986,  13.6,  12.1,  15.7
20110927 11:00,   23987,  14.7,  13.8,  15.7
20110927 12:00,   23988,  13.2,  12.1,  14.6
20110927 13:00,   23989,  13.3,  12.3,  14.2
20110927 14:00,   23990,  14.3,  13.1,  16.6
20110927 15:00,   23991,  14.4,  13.8,  16.9
20110927 16:00,   23992,  14.4,  13.4,  15.0
20110927 17:00,   23993,  14.2,  12.6,  15.0
20110927 18:00,   23994,  14.8,  13.8,  16.1
20110927 19:00,   23995,  15.6,  14.7,  16.8
20110927 20:00,   23996,  15.1,  14.4,  16.1
20110927 21:00,   23997,  15.5,  15.0,  16.0
20110927 22:00,   23998,  15.5,  14.9,  15.9
20110927 23:00,   23999,  15.4,  14.9,  16.0
20110928 00:00,   24000,  15.5,  14.9,  16.1
20110928 01:00,   24001,  15.4,  14.9,  16.0
20110928 02:00,   24002,  15.4,  14.9,  16.0
20110928 03:00,   24003,  15.5,  14.9,  16.0
20110928 04:00,   24004,  17.2,  14.6,  20.9
20110928 05:00,   24005,  16.1,  14.3,  19.9
20110928 06:00,   24006,  14.6,  13.6,  15.7
20110928 07:00,   24007,  14.4,  13.5,  14.9
20110928 08:00,   24008,  14.5,  13.6,  17.1
20110928 09:00,   24009,  14.2,  13.3,  14.8
20110928 10:00,   24010,  15.0,  13.7,  19.6
20110928 11:00,   24011,  15.7,  14.6,  16.5
20110928 12:00,   24012,  15.8,  15.3,  16.6
20110928 13:00,   24013,  15.4,  14.8,  16.1
20110928 14:00,   24014,  15.0,  14.4,  15.5
20110928 15:00,   24015,  14.8,  14.1,  15.4
20110928 16:00,   24016,  14.9,  14.3,  15.5
20110928 17:00,   24017,  15.0,  14.4,  15.5
20110928 18:00,   24018,  15.2,  14.6,  15.8
20110928 19:00,   24019,  15.2,  14.4,  16.7
20110928 20:00,   24020,  15.3,  14.5,  15.9
20110928 21:00,   24021,  15.8,  15.1,  16.5
20110928 22:00,   24022,  15.6,  15.0,  17.1
20110928 23:00,   24023,  15.6,  15.1,  15.9
20110929 00:00,   24024,  15.6,  14.8,  16.8
20110929 01:00,   24025,  15.2,  11.7,  16.1
20110929 02:00,   24026,  15.4,  14.9,  18.0
20110929 03:00,   24027,  15.8,  15.0,  17.0
20110929 04:00,   24028,  15.5,  10.6,  17.1
20110929 05:00,   24029,  15.3,  14.6,  15.9
20110929 06:00,   24030,  14.7,  10.8,  15.8
20110929 07:00,   24031,  14.5,  10.1,  15.5
20110929 08:00,   24032,  13.8,  12.0,  14.6
20110929 09:00,   24033,  14.1,  12.9,  15.1
20110929 10:00,   24034,  14.6,  13.6,  15.6
20110929 11:00,   24035,  14.7,  14.0,  15.4
20110929 12:00,   24036,  14.6,  14.0,  15.4
20110929 13:00,   24037,  14.9,  14.2,  15.8
20110929 14:00,   24038,  15.5,  14.1,  16.7
20110929 15:00,   24039,  13.3,  11.7,  15.2
20110929 16:00,   24040,  12.8,  11.9,  13.6
20110929 17:00,   24041,  13.1,  12.3,  14.4
20110929 18:00,   24042,  14.1,  13.4,  14.9
20110929 19:00,   24043,  14.2,  13.0,  15.4
20110929 20:00,   24044,  13.7,  13.0,  14.2
20110929 21:00,   24045,  13.7,  13.0,  14.7
20110929 22:00,   24046,  14.2,  13.1,  18.9
20110929 23:00,   24047,  14.9,  13.2,  16.9
20110930 00:00,   24048,  16.8,  15.5,  17.6
20110930 01:00,   24049,  15.7,  13.9,  17.8
20110930 02:00,   24050,  14.9,  13.7,  16.2
20110930 03:00,   24051,  15.1,  14.4,  16.1
20110930 04:00,   24052,  15.8,  14.6,  17.3
20110930 05:00,   24053,  14.8,   3.8,  17.3
20110930 06:00,   24054,  18.4,  16.8,  19.7
20110930 07:00,   24055,  18.6,  12.8,  21.2
20110930 08:00,   24056,  17.0,  16.0,  18.4
20110930 09:00,   24057,  16.5,  15.8,  17.3
20110930 10:00,   24058,  14.9,   3.3,  16.9
20110930 11:00,   24059,  15.0,  10.5,  16.3
20110930 12:00,   24060,  15.2,  14.3,  16.0
20110930 13:00,   24061,  16.7,  13.9,  21.9
20110930 14:00,   24062,  24.2,  11.8,  29.4
20110930 15:00,   24063,  23.9,  22.6,  25.4
20110930 16:00,   24064,  20.9,   4.3,  24.6
20110930 17:00,   24065,  20.8,   4.0,  25.1
20110930 18:00,   24066,  21.1,  17.7,  23.2
20110930 19:00,   24067,  19.6,  16.2,  22.8
20110930 20:00,   24068,  17.6,  15.1,  21.6
20110930 21:00,   24069,  16.9,  15.4,  19.1
20110930 22:00,   24070,  16.7,  15.7,  18.3
20110930 23:00,   24071,  17.0,  10.4,  18.5
20111001 00:00,   24072,  16.9,  16.1,  17.6
20111001 01:00,   24073,  16.7,   5.3,  19.3
20111001 02:00,   24074,  18.4,   5.7,  20.1
20111001 03:00,   24075,  19.7,  18.5,  20.7
20111001 04:00,   24076,  17.9,   4.5,  20.5
20111001 05:00,   24077,  18.6,  11.6,  20.6
20111001 06:00,   24078,  19.8,  18.9,  20.8
20111001 07:00,   24079,  17.6,   1.8,  20.2
20111001 08:00,   24080,  18.4,   1.4,  23.7
20111001 09:00,   24081,  23.2,  22.4,  23.9
20111001 10:00,   24082,  21.9,   4.0,  24.2
20111001 11:00,   24083,  17.8,   3.4,  24.3
20111001 12:00,   24084,  24.2,  23.3,  25.2
20111001 13:00,   24085,  24.3,   5.2,  26.0
20111001 14:00,   24086,  20.8,   3.7,  26.8
20111001 15:00,   24087,  25.7,  24.1,  28.6
20111001 16:00,   24088,  25.8,  24.5,  27.1
20111001 17:00,   24089,  22.6,   4.0,  25.8
20111001 18:00,   24090,  25.8,  25.0,  26.8
20111001 19:00,   24091,  26.8,  25.5,  27.9
20111001 20:00,   24092,  23.9,   4.3,  27.6
20111001 21:00,   24093,  26.4,  25.6,  27.3
20111001 22:00,   24094,  26.7,  25.5,  31.5
20111001 23:00,   24095,  25.3,   6.5,  27.1
20111002 00:00,   24096,  26.4,  25.5,  27.2
20111002 01:00,   24097,  26.4,  25.4,  27.3
20111002 02:00,   24098,  24.8,   6.6,  26.8
20111002 03:00,   24099,  26.6,  25.5,  27.8
20111002 04:00,   24100,  25.7,  24.5,  28.8
20111002 05:00,   24101,  22.5,   4.3,  25.2
20111002 06:00,   24102,  24.9,  22.3,  28.0
20111002 07:00,   24103,  22.5,  21.2,  28.0
20111002 08:00,   24104,  19.0,   4.7,  22.0
20111002 09:00,   24105,  20.7,  19.9,  21.4
20111002 10:00,   24106,  20.5,  19.6,  23.3
20111002 11:00,   24107,  17.9,   3.3,  23.1
20111002 12:00,   24108,  20.0,  19.3,  20.8
20111002 13:00,   24109,  20.2,  19.5,  20.7
20111002 14:00,   24110,  17.7,   3.0,  20.9
20111002 15:00,   24111,  20.4,  19.6,  21.1
20111002 16:00,   24112,  20.4,  12.9,  21.3
20111002 17:00,   24113,  18.2,   3.2,  21.8
20111002 18:00,   24114,  21.4,  20.7,  22.1
20111002 19:00,   24115,  22.2,  21.4,  23.0
20111002 20:00,   24116,  21.9,   7.4,  23.4
20111002 21:00,   24117,  22.6,  21.4,  23.7
20111002 22:00,   24118,  23.0,  22.1,  23.7
20111002 23:00,   24119,  23.1,  22.0,  24.2
20111003 00:00,   24120,  23.3,  22.5,  24.1
20111003 01:00,   24121,  23.0,  22.3,  23.5
20111003 02:00,   24122,  21.9,   7.6,  23.7
20111003 03:00,   24123,  23.2,  21.9,  26.2
20111003 04:00,   24124,  21.9,  20.8,  22.8
20111003 05:00,   24125,  21.1,  20.3,  22.0
20111003 06:00,   24126,  20.4,  19.5,  21.5
20111003 07:00,   24127,  20.5,  19.3,  22.2
20111003 08:00,   24128,  19.7,  18.7,  20.5
20111003 09:00,   24129,  20.7,  17.7,  28.7
20111003 10:00,   24130,  23.0,  19.7,  29.5
20111003 11:00,   24131,  21.0,  16.2,  25.4
20111003 12:00,   24132,  20.0,  18.0,  21.6
20111003 13:00,   24133,  20.0,  18.8,  21.6
20111003 14:00,   24134,  19.4,  12.4,  21.1
20111003 15:00,   24135,  19.2,  17.5,  21.4
20111003 16:00,   24136,  18.9,  18.1,  19.5
20111003 17:00,   24137,  18.8,  11.3,  19.9
20111003 18:00,   24138,  19.0,  18.5,  19.7
20111003 19:00,   24139,  17.5,   6.3,  19.7
20111003 20:00,   24140,  15.7,   4.8,  19.2
20111003 21:00,   24141,  18.8,  18.1,  19.4
20111003 22:00,   24142,  18.2,   7.5,  19.5
20111003 23:00,   24143,  18.3,  10.8,  19.8
20111004 00:00,   24144,  19.3,  18.6,  19.9
20111004 01:00,   24145,  18.1,   4.5,  19.6
20111004 02:00,   24146,  18.5,  15.0,  19.5
20111004 03:00,   24147,  19.1,  18.4,  19.8
20111004 04:00,   24148,  18.4,  12.2,  19.6
20111004 05:00,   24149,  18.1,  14.1,  18.9
20111004 06:00,   24150,  18.3,  17.6,  19.1
20111004 07:00,   24151,  18.1,  17.2,  18.9
20111004 08:00,   24152,  17.7,  16.6,  18.5
20111004 09:00,   24153,  17.8,  17.0,  18.6
20111004 10:00,   24154,  17.8,  15.7,  22.9
20111004 11:00,   24155,  17.6,  16.9,  18.0
20111004 12:00,   24156,  17.4,  16.9,  18.0
20111004 13:00,   24157,  17.6,  16.9,  18.2
20111004 14:00,   24158,  17.6,  14.8,  18.3
20111004 15:00,   24159,  17.9,  16.9,  19.1
20111004 16:00,   24160,  17.4,   7.7,  19.3
20111004 17:00,   24161,  18.6,  17.0,  21.5
20111004 18:00,   24162,  19.3,  18.4,  20.1
20111004 19:00,   24163,  17.0,   3.2,  21.0
20111004 20:00,   24164,  16.5,   4.2,  20.5
20111004 21:00,   24165,  16.5,   5.9,  20.4
20111004 22:00,   24166,  19.7,  11.5,  21.3
20111004 23:00,   24167,  20.6,  13.5,  22.2
20111005 00:00,   24168,  22.2,  21.3,  23.1
20111005 01:00,   24169,  23.2,  22.1,  24.2
20111005 02:00,   24170,  23.6,  22.9,  24.1
20111005 03:00,   24171,  23.4,  22.6,  24.2
20111005 04:00,   24172,  21.1,   3.3,  23.9
20111005 05:00,   24173,  19.9,   3.5,  24.9
20111005 06:00,   24174,  21.6,  20.9,  22.5
20111005 07:00,   24175,  20.8,   6.2,  21.9
20111005 08:00,   24176,  20.2,   3.6,  21.7
20111005 09:00,   24177,  21.2,  20.2,  23.6
20111005 10:00,   24178,  19.1,   3.8,  21.1
20111005 11:00,   24179,  15.7,   3.5,  22.5
20111005 12:00,   24180,  21.3,  20.3,  22.7
20111005 13:00,   24181,  21.7,  21.1,  22.5
20111005 14:00,   24182,  22.2,  21.5,  25.6
20111005 15:00,   24183,  22.3,  21.4,  22.9
20111005 16:00,   24184,  23.0,  21.4,  24.1
20111005 17:00,   24185,  23.3,  22.7,  23.7
20111005 18:00,   24186,  23.0,  22.4,  23.8
20111005 19:00,   24187,  23.1,  22.3,  23.8
20111005 20:00,   24188,  21.2,   5.4,  24.4
20111005 21:00,   24189,  23.7,  22.9,  24.2
20111005 22:00,   24190,  23.9,  23.2,  24.5
20111005 23:00,   24191,  23.9,   9.7,  25.7
20111006 00:00,   24192,  25.3,  23.6,  26.2
20111006 01:00,   24193,  25.4,  24.7,  25.9
20111006 02:00,   24194,  25.0,  24.2,  25.8
20111006 03:00,   24195,  26.0,  23.9,  28.5
20111006 04:00,   24196,  24.4,  23.1,  25.5
20111006 05:00,   24197,  23.9,  22.6,  25.4
20111006 06:00,   24198,  23.8,  22.1,  25.1
20111006 07:00,   24199,  22.7,   9.1,  26.5
20111006 08:00,   24200,  20.7,  19.8,  21.7
20111006 09:00,   24201,  20.1,  19.3,  20.9
20111006 10:00,   24202,  19.4,   5.5,  20.7
20111006 11:00,   24203,  19.2,   6.3,  21.5
20111006 12:00,   24204,  21.1,  20.1,  22.1
20111006 13:00,   24205,  21.9,  21.1,  23.0
20111006 14:00,   24206,  21.3,   9.9,  22.8
20111006 15:00,   24207,  23.1,  18.5,  24.0
20111006 16:00,   24208,  23.9,  23.0,  25.0
20111006 17:00,   24209,  24.1,  12.8,  25.6
20111006 18:00,   24210,  24.0,  23.0,  25.0
20111006 19:00,   24211,  24.8,  23.8,  25.5
20111006 20:00,   24212,  24.4,  13.7,  25.7
20111006 21:00,   24213,  25.5,  24.8,  26.1
20111006 22:00,   24214,  26.5,  25.0,  27.6
20111006 23:00,   24215,  26.9,  26.1,  29.5
20111007 00:00,   24216,  27.4,  26.1,  28.3
20111007 01:00,   24217,  25.5,  11.7,  27.4
20111007 02:00,   24218,  26.3,  25.6,  26.9
20111007 03:00,   24219,  26.2,  25.2,  27.1
20111007 04:00,   24220,  25.2,  10.6,  27.6
20111007 05:00,   24221,  24.2,  23.0,  25.3
20111007 06:00,   24222,  24.5,  22.6,  30.3
20111007 07:00,   24223,  23.7,  14.4,  32.1
20111007 08:00,   24224,  21.5,  12.6,  23.0
20111007 09:00,   24225,  22.4,  20.5,  28.6
20111007 10:00,   24226,  21.4,  20.6,  22.2
20111007 11:00,   24227,  20.1,   6.9,  22.1
20111007 12:00,   24228,  21.6,  20.8,  22.3
20111007 13:00,   24229,  20.9,   8.3,  23.3
20111007 14:00,   24230,  21.5,  13.5,  24.3
20111007 15:00,   24231,  21.2,  20.1,  22.0
20111007 16:00,   24232,  20.8,  19.7,  21.7
20111007 17:00,   24233,  20.8,  14.0,  21.8
20111007 18:00,   24234,  20.8,  19.8,  21.6
20111007 19:00,   24235,  21.0,  20.3,  22.2
20111007 20:00,   24236,  20.5,   7.0,  23.7
20111007 21:00,   24237,  22.7,  21.5,  23.9
20111007 22:00,   24238,  21.3,  11.9,  24.2
20111007 23:00,   24239,  20.7,   5.8,  24.1
20111008 00:00,   24240,  23.3,  22.0,  24.5
20111008 01:00,   24241,  22.9,  22.0,  23.8
20111008 02:00,   24242,  23.3,  21.5,  24.2
20111008 03:00,   24243,  24.1,  23.1,  24.9
20111008 04:00,   24244,  19.7,   7.5,  24.8
20111008 05:00,   24245,  23.1,   4.8,  26.4
20111008 06:00,   24246,  24.7,  24.0,  25.6
20111008 07:00,   24247,  24.5,   7.8,  29.5
20111008 08:00,   24248,  24.0,  11.3,  26.3
20111008 09:00,   24249,  20.8,   5.5,  26.7
20111008 10:00,   24250,  23.9,  12.9,  26.7
20111008 11:00,   24251,  26.8,  25.5,  27.7
20111008 12:00,   24252,  27.0,  26.1,  28.1
20111008 13:00,   24253,  24.5,   8.6,  27.8
20111008 14:00,   24254,  24.7,  12.7,  26.6
20111008 15:00,   24255,  24.8,  23.8,  26.0
20111008 16:00,   24256,  19.6,   3.8,  25.0
20111008 17:00,   24257,  22.0,   6.1,  24.6
20111008 18:00,   24258,  23.6,  23.0,  24.3
20111008 19:00,   24259,  24.2,   4.3,  26.4
20111008 20:00,   24260,  21.7,   4.2,  26.2
20111008 21:00,   24261,  26.8,  21.1,  28.7
20111008 22:00,   24262,  25.5,  11.5,  27.5
20111008 23:00,   24263,  24.2,   6.0,  29.4
20111009 00:00,   24264,  24.4,  23.2,  25.8
20111009 01:00,   24265,  24.0,  22.6,  25.9
20111009 02:00,   24266,  23.2,  22.4,  23.9
20111009 03:00,   24267,  23.0,  21.9,  23.9
20111009 04:00,   24268,  19.9,   3.3,  23.0
20111009 05:00,   24269,  18.8,   2.7,  25.5
20111009 06:00,   24270,  20.6,  19.9,  21.3
20111009 07:00,   24271,  22.1,  19.9,  25.6
20111009 08:00,   24272,  20.9,  10.8,  22.3
20111009 09:00,   24273,  21.2,  19.7,  23.5
20111009 10:00,   24274,  20.0,   6.0,  22.7
20111009 11:00,   24275,  19.3,   6.4,  21.9
20111009 12:00,   24276,  19.8,  18.6,  21.1
20111009 13:00,   24277,  19.6,  18.8,  20.4
20111009 14:00,   24278,  19.3,  13.2,  22.1
20111009 15:00,   24279,  19.6,  18.7,  20.3
20111009 16:00,   24280,  20.4,  18.9,  21.5
20111009 17:00,   24281,  19.1,   6.4,  21.3
20111009 18:00,   24282,  19.9,  18.9,  21.0
20111009 19:00,   24283,  23.1,  20.2,  25.3
20111009 20:00,   24284,  22.2,   5.3,  27.1
20111009 21:00,   24285,  25.6,  24.4,  26.6
20111009 22:00,   24286,  26.4,  25.7,  27.0
20111009 23:00,   24287,  26.7,  25.8,  27.6
20111010 00:00,   24288,  26.9,  26.0,  27.5
20111010 01:00,   24289,  26.8,  11.2,  29.1
20111010 02:00,   24290,  25.7,   3.8,  29.8
20111010 03:00,   24291,  29.2,  28.0,  35.6
20111010 04:00,   24292,  29.9,  28.7,  30.7
20111010 05:00,   24293,  29.7,  14.4,  31.8
20111010 06:00,   24294,  29.5,  28.8,  30.0
20111010 07:00,   24295,  29.4,  27.9,  34.3
20111010 08:00,   24296,  29.1,  27.9,  30.2
20111010 09:00,   24297,  28.7,  27.1,  31.0
20111010 10:00,   24298,  25.7,   8.5,  28.5
20111010 11:00,   24299,  28.7,  26.3,  32.3
20111010 12:00,   24300,  28.6,  27.6,  29.7
20111010 13:00,   24301,  28.3,   7.8,  29.7
20111010 14:00,   24302,  26.9,   5.8,  30.1
20111010 15:00,   24303,  29.7,  28.3,  30.4
20111010 16:00,   24304,  30.0,  29.3,  33.5
20111010 17:00,   24305,  27.6,   4.6,  30.7
20111010 18:00,   24306,  30.4,  29.7,  31.2
20111010 19:00,   24307,  30.1,  13.4,  31.5
20111010 20:00,   24308,  31.9,  30.8,  32.9
20111010 21:00,   24309,  32.4,  31.4,  33.8
20111010 22:00,   24310,  33.4,  32.0,  34.3
20111010 23:00,   24311,  33.5,  32.8,  34.3
20111011 00:00,   24312,  33.2,  32.2,  34.2
20111011 01:00,   24313,  33.5,  32.5,  34.3
20111011 02:00,   24314,  34.1,  33.2,  34.9
20111011 03:00,   24315,  34.1,  33.3,  39.2
20111011 04:00,   24316,  32.2,   5.5,  35.4
20111011 05:00,   24317,  31.3,   6.7,  34.7
20111011 06:00,   24318,  32.3,  31.1,  34.1
20111011 07:00,   24319,  31.7,  30.0,  35.1
20111011 08:00,   24320,  29.9,  28.6,  30.7
20111011 09:00,   24321,  29.0,  27.9,  30.1
20111011 10:00,   24322,  22.9,   6.0,  30.5
20111011 11:00,   24323,  24.6,   5.8,  30.6
20111011 12:00,   24324,  29.6,  27.9,  31.1
20111011 13:00,   24325,  28.0,   5.7,  31.4
20111011 14:00,   24326,  25.0,   4.1,  30.2
20111011 15:00,   24327,  27.4,  12.9,  30.1
20111011 16:00,   24328,  27.6,  25.5,  28.9
20111011 17:00,   24329,  27.5,  25.8,  28.7
20111011 18:00,   24330,  27.2,  26.1,  28.5
20111011 19:00,   24331,  25.2,   6.5,  29.3
20111011 20:00,   24332,  24.1,   5.8,  29.3
20111011 21:00,   24333,  27.9,  26.1,  30.4
20111011 22:00,   24334,  27.6,  26.3,  30.2
20111011 23:00,   24335,  27.4,  25.9,  29.1
20111012 00:00,   24336,  27.4,  26.0,  29.2
20111012 01:00,   24337,  26.8,   9.4,  29.2
20111012 02:00,   24338,  27.6,  25.5,  30.0
20111012 03:00,   24339,  27.1,  24.6,  29.2
20111012 04:00,   24340,  24.7,   7.2,  29.7
20111012 05:00,   24341,  25.1,   6.8,  30.5
20111012 06:00,   24342,  24.8,  23.0,  29.8
20111012 07:00,   24343,  23.8,   6.0,  28.0
20111012 08:00,   24344,  23.7,  21.6,  26.4
20111012 09:00,   24345,  24.5,  21.2,  29.4
20111012 10:00,   24346,  24.3,  21.6,  27.9
20111012 11:00,   24347,  22.8,   8.3,  28.0
20111012 12:00,   24348,  23.7,  22.0,  25.3
20111012 13:00,   24349,  23.7,  22.0,  25.3
20111012 14:00,   24350,  24.3,  22.2,  25.7
20111012 15:00,   24351,  24.7,  23.2,  26.6
20111012 16:00,   24352,  25.8,  23.5,  27.9
20111012 17:00,   24353,  25.8,  24.5,  27.6
20111012 18:00,   24354,  25.7,  23.9,  27.6
20111012 19:00,   24355,  25.3,   7.9,  27.8
20111012 20:00,   24356,  25.5,  24.5,  26.7
20111012 21:00,   24357,  26.3,  25.1,  28.6
20111012 22:00,   24358,  24.5,   5.5,  28.8
20111012 23:00,   24359,  27.0,  16.2,  29.4
20111013 00:00,   24360,  28.2,  26.4,  30.5
20111013 01:00,   24361,  27.4,   8.0,  30.5
20111013 02:00,   24362,  28.5,  26.6,  30.1
20111013 03:00,   24363,  28.8,  26.7,  30.4
20111013 04:00,   24364,  27.0,   5.1,  30.4
20111013 05:00,   24365,  28.4,  26.2,  30.6
20111013 06:00,   24366,  26.0,  23.5,  29.2
20111013 07:00,   24367,  25.1,  22.9,  26.9
20111013 08:00,   24368,  26.7,  24.0,  29.5
20111013 09:00,   24369,  27.6,  24.2,  33.4
20111013 10:00,   24370,  25.6,  22.5,  33.1
20111013 11:00,   24371,  25.0,  22.9,  27.1
20111013 12:00,   24372,  25.8,  24.1,  27.7
20111013 13:00,   24373,  25.3,  23.6,  27.3
20111013 14:00,   24374,  24.9,  22.5,  26.4
20111013 15:00,   24375,  25.0,  22.7,  27.2
20111013 16:00,   24376,  25.2,  23.5,  26.8
20111013 17:00,   24377,  24.9,  22.7,  26.8
20111013 18:00,   24378,  24.3,  22.7,  25.7
20111013 19:00,   24379,  24.1,  17.2,  26.4
20111013 20:00,   24380,  24.6,  18.1,  26.4
20111013 21:00,   24381,  24.5,  22.8,  26.8
20111013 22:00,   24382,  24.8,  23.0,  27.4
20111013 23:00,   24383,  25.3,  23.5,  26.9
20111014 00:00,   24384,  25.1,  22.7,  26.1
20111014 01:00,   24385,  25.2,  24.3,  26.0
20111014 02:00,   24386,  23.2,   7.2,  25.7
20111014 03:00,   24387,  25.3,  23.7,  28.6
20111014 04:00,   24388,  23.2,   6.1,  25.6
20111014 05:00,   24389,  23.1,  20.9,  25.0
20111014 06:00,   24390,  23.1,  19.5,  27.7
20111014 07:00,   24391,  21.7,  18.7,  26.2
20111014 08:00,   24392,  24.2,  19.2,  31.1
20111014 09:00,   24393,  22.4,  18.3,  26.0
20111014 10:00,   24394,  22.3,  19.9,  25.0
20111014 11:00,   24395,  18.7,  17.0,  20.7
20111014 12:00,   24396,  18.8,  16.5,  22.4
20111014 13:00,   24397,  17.9,  16.0,  19.5
20111014 14:00,   24398,  16.3,  15.2,  17.4
20111014 15:00,   24399,  15.8,  14.6,  17.2
20111014 16:00,   24400,  11.9,   3.8,  15.9
20111014 17:00,   24401,  13.2,   2.7,  16.0
20111014 18:00,   24402,  15.6,  14.7,  17.2
20111014 19:00,   24403,  15.6,  14.6,  16.6
20111014 20:00,   24404,  16.4,  15.0,  19.1
20111014 21:00,   24405,  15.0,  14.2,  16.0
20111014 22:00,   24406,  11.2,   2.2,  15.5
20111014 23:00,   24407,  13.4,   3.6,  15.0
20111015 00:00,   24408,  14.9,  13.6,  15.6
20111015 01:00,   24409,  14.2,   2.2,  15.7
20111015 02:00,   24410,  14.1,   8.4,  15.2
20111015 03:00,   24411,  13.7,  13.0,  14.6
20111015 04:00,   24412,  13.6,  13.0,  14.6
20111015 05:00,   24413,  13.2,  11.9,  14.5
20111015 06:00,   24414,  12.8,  11.6,  21.1
20111015 07:00,   24415,  12.7,   2.8,  17.0
20111015 08:00,   24416,  11.6,  10.5,  12.8
20111015 09:00,   24417,  13.7,  10.8,  19.0
20111015 10:00,   24418,  11.6,   3.1,  15.1
20111015 11:00,   24419,  11.6,   4.5,  14.7
20111015 12:00,   24420,  11.7,  10.6,  14.1
20111015 13:00,   24421,  13.3,  11.6,  15.6
20111015 14:00,   24422,  11.8,   6.5,  13.2
20111015 15:00,   24423,  11.7,  11.0,  12.2
20111015 16:00,   24424,  12.2,  11.1,  13.3
20111015 17:00,   24425,  13.0,  12.3,  13.9
20111015 18:00,   24426,  13.5,  12.9,  14.4
20111015 19:00,   24427,  12.9,   3.8,  16.4
20111015 20:00,   24428,  13.5,  11.0,  14.5
20111015 21:00,   24429,  13.5,  12.8,  14.7
20111015 22:00,   24430,  12.1,   3.5,  15.2
20111015 23:00,   24431,  12.4,   3.9,  15.1
20111016 00:00,   24432,  14.9,  14.1,  15.7
20111016 01:00,   24433,  15.1,  14.3,  15.9
20111016 02:00,   24434,  16.0,  14.4,  17.2
20111016 03:00,   24435,  16.2,  14.9,  19.9
20111016 04:00,   24436,  17.8,   3.8,  21.8
20111016 05:00,   24437,  18.1,  16.3,  21.2
20111016 06:00,   24438,  16.9,  15.5,  22.7
20111016 07:00,   24439,  17.6,   6.0,  22.7
20111016 08:00,   24440,  18.4,  15.1,  26.5
20111016 09:00,   24441,  16.4,  15.6,  17.3
20111016 10:00,   24442,  15.1,   4.2,  17.2
20111016 11:00,   24443,  16.4,   6.2,  19.7
20111016 12:00,   24444,  16.2,  14.9,  17.2
20111016 13:00,   24445,  15.6,  15.0,  16.4
20111016 14:00,   24446,  15.8,  15.2,  16.6
20111016 15:00,   24447,  15.7,  14.8,  16.4
20111016 16:00,   24448,  16.2,  15.2,  17.0
20111016 17:00,   24449,  16.4,  15.8,  17.0
20111016 18:00,   24450,  16.9,  16.1,  17.6
20111016 19:00,   24451,  17.4,  16.4,  18.4
20111016 20:00,   24452,  17.7,   8.1,  18.9
20111016 21:00,   24453,  18.0,  17.1,  18.8
20111016 22:00,   24454,  18.6,   8.0,  20.0
20111016 23:00,   24455,  19.6,  18.8,  20.4
20111017 00:00,   24456,  19.1,  17.3,  20.2
20111017 01:00,   24457,  19.6,  18.7,  20.7
20111017 02:00,   24458,  20.0,  18.9,  21.5
20111017 03:00,   24459,  19.8,  18.8,  21.5
20111017 04:00,   24460,  19.4,  18.6,  20.6
20111017 05:00,   24461,  19.8,  18.7,  21.4
20111017 06:00,   24462,  18.7,  17.5,  20.0
20111017 07:00,   24463,  18.4,   3.6,  19.6
20111017 08:00,   24464,  19.3,  17.9,  21.2